This is the latest recevied weather packets stored in our database for station/object KQ4OSL. If no packets are shown the sender has not sent any weather packets the latest 10 day(s).
| Time | Temp. | Humidity | Pressure | Rain* | Wind** | Luminosity | Snow |
|---|---|---|---|---|---|---|---|
| 1777401355 | 16.11° C | 97% | 1023.1 hPa | 0 mm | - | 108 W/m² | - |
| 1777401050 | 16.11° C | 96% | 1023.4 hPa | 0 mm | - | 143 W/m² | - |
| 1777400746 | 16.11° C | 96% | 1023.3 hPa | 0 mm | - | 155 W/m² | - |
| 1777400444 | 16.11° C | 97% | 1023.4 hPa | 0 mm | - | 172 W/m² | - |
| 1777400143 | 16.67° C | 95% | 1023.4 hPa | 0 mm | - | 169 W/m² | - |
| 1777399841 | 16.11° C | 96% | 1023.2 hPa | 0 mm | - | 225 W/m² | - |
| 1777399538 | 16.11° C | 96% | 1023.3 hPa | 0 mm | - | 177 W/m² | - |
| 1777399236 | 16.11° C | 96% | 1023.5 hPa | 0 mm | - | 245 W/m² | - |
| 1777398933 | 16.11° C | 98% | 1023.7 hPa | 0 mm | - | 189 W/m² | - |
| 1777398630 | 15.56° C | 98% | 1023.2 hPa | 0 mm | - | 230 W/m² | - |
| 1777398326 | 15.56° C | 99% | 1023.1 hPa | 0 mm | - | 314 W/m² | - |
| 1777398024 | 15° C | 99% | 1022.7 hPa | 0 mm | - | 193 W/m² | - |
| 1777397720 | 15° C | 99% | 1022.7 hPa | 0 mm | - | 201 W/m² | - |
| 1777397416 | 15° C | 99% | 1022.8 hPa | 0 mm | - | 171 W/m² | - |
| 1777397112 | 15° C | 99% | 1023 hPa | 0 mm | - | 131 W/m² | - |
| 1777396809 | 15° C | 99% | 1022.5 hPa | 0 mm | - | 131 W/m² | - |
| 1777396505 | 15° C | 99% | 1022.6 hPa | 0 mm | - | 119 W/m² | - |
| 1777396203 | 15° C | 99% | 1022.8 hPa | 0 mm | - | 131 W/m² | - |
| 1777395898 | 15° C | 99% | 1023 hPa | 0 mm | - | 177 W/m² | - |
| 1777395594 | 14.44° C | 99% | 1023.6 hPa | 0 mm | - | 115 W/m² | - |
| 1777395290 | 15° C | 99% | 1024.1 hPa | 0 mm | - | 153 W/m² | - |
| 1777394988 | 15° C | 99% | 1024.2 hPa | 0 mm | - | 154 W/m² | - |
| 1777394684 | 15° C | 99% | 1024.1 hPa | 0 mm | - | 134 W/m² | - |
| 1777394380 | 15° C | 99% | 1024.3 hPa | 0 mm | - | 157 W/m² | - |
| 1777394078 | 15° C | 99% | 1024 hPa | 1.27 mm | - | 173 W/m² | - |
* Rain latest hour (hover to see other rain measurements)
** Current wind speed in m/s (hover to see current wind gust speed)